Home > Weather > Allentown > Past weeks

Flag for USA Past Weather in Allentown, Pennsylvania, USA — Yesterday and Last 2 Weeks

Now
73 °F

Clear.


Feels Like: 76 °F
Forecast: 66 / 92 °F
Wind: 3 mph from North

Location: Lehigh Valley International Airport

Current Time: Jul 24, 2016 at 1:00:33 AM

Latest Report: Jul 23, 2016 at 11:51 PM


Visibility: 10 mi

Pressure: 29.92 "Hg

Humidity: 62%

Dew Point: 59 °F

Location of AllentownLocation

Past Weather in Allentown — Graph

°F

Allentown Temperature Yesterday

Maximum temperature yesterday: 95 °F (at 1:51 PM)
Minimum temperature yesterday: 71 °F (at 4:51 AM)
Average temperature yesterday: 84 °F

High & Low Weather Summary for the Past Weeks

 TemperatureHumidityPressure
High96 °F (Jul 22, 3:51 PM)94% (Jul 18, 7:04 PM)30.25 "Hg (Jul 18, 7:04 PM)
Low58 °F (Jul 21, 4:51 AM)25% (Jul 23, 2:51 PM)29.76 "Hg (Jul 9, 6:51 PM)
Average77 °F64%30.00 "Hg
* Reported Jul 8 11:51 PM — Jul 23 11:51 PM, Allentown, Weather by CustomWeather, © 2016

Note: Actual official high and low records may vary slightly from our data, if they occured in-between our weather recording intervals... More about our weather records

Advertising

Allentown Weather History for the Previous 24 Hours

Scroll right to see more
 ConditionsComfort  
Time TempWeatherWind HumidityBarometerVisibility
11:51 PM
Sat, Jul 23
73 °FClear.3 mph62%29.92 "Hg10 mi
10:51 PM82 °FClear.5 mph41%29.90 "Hg10 mi
9:51 PM79 °FClear.No wind50%29.88 "Hg10 mi
8:51 PM84 °FScattered clouds.5 mph46%29.86 "Hg10 mi
7:51 PM90 °FScattered clouds.5 mph35%29.84 "Hg10 mi
6:51 PM94 °FSunny.8 mph29%29.81 "Hg10 mi
5:51 PM95 °FSunny.9 mph28%29.81 "Hg10 mi
4:51 PM95 °FSunny.10 mph29%29.82 "Hg10 mi
3:51 PM95 °FSunny.14 mph27%29.85 "Hg10 mi
2:51 PM95 °FSunny.10 mph25%29.86 "Hg10 mi
1:51 PM95 °FSunny.14 mph28%29.87 "Hg10 mi
12:51 PM93 °FSunny.14 mph32%29.88 "Hg10 mi
11:51 AM91 °FSunny.12 mph37%29.89 "Hg10 mi
10:51 AM89 °FSunny.7 mph43%29.90 "Hg10 mi
9:51 AM86 °FSunny.6 mph57%29.89 "Hg10 mi
8:51 AM84 °FSunny.7 mph65%29.90 "Hg10 mi
7:51 AM79 °FSunny.No wind72%29.90 "Hg10 mi
6:51 AM74 °FSunny.3 mph82%29.90 "Hg10 mi
5:51 AM71 °FPassing clouds.No wind84%29.88 "Hg10 mi
4:51 AM71 °FClear.5 mph84%29.88 "Hg10 mi
3:51 AM73 °FClear.5 mph79%29.87 "Hg10 mi
2:51 AM73 °FClear.6 mph79%29.87 "Hg10 mi
1:51 AM77 °FPassing clouds.No wind69%29.87 "Hg10 mi
Weather by CustomWeather, © 2016

See weather overviewHow to use our weather pages